Change the Weather History Date:

Friday, February 21, 2014

  Actual Average (KAQP) Record (KAQP)
Temperature  
Mean Temperature 14 °F -  
Max Temperature 21 °F 26 °F 46 °F (2007)
Min Temperature 6 °F 10 °F -25 °F (2001)
Degree Days  
Heating Degree Days 52    
Moisture  
Dew Point 5 °F    
Average Humidity 68    
Maximum Humidity 79    
Minimum Humidity 54    
Precipitation  
Precipitation 0.00 in - - ()
Sea Level Pressure  
Sea Level Pressure 29.68 in    
Wind  
Wind Speed 19 mph (NW)    
Max Wind Speed 24 mph    
Max Gust Speed 34 mph    
Visibility 10 miles    
Events      
Averages and records for this station are not official NWS values.
T = Trace of Precipitation, MM = Missing Value Source: NWS Daily Summary

Daily Weather History Graph

Daily Weather History Graph

Search for Another Location

Airport or City:

Trip Planner

Search our weather history database for the weather conditions in past years. The results will help you decide how hot, cold, wet, or windy it might be!

Date:

Astronomy

Feb. 21, 2014 Rise Set
Actual Time 7:17 AM CST 6:01 PM CST
Civil Twilight 6:47 AM CST 6:31 PM CST
Nautical Twilight 6:13 AM CST 7:06 PM CST
Astronomical Twilight 5:39 AM CST 7:40 PM CST
Moon 12:14 AM CST (2/21) 10:23 AM CST (2/21)
Length of Visible Light 11h 44m
Length of Day
10h 44m
Waning Gibbous, 60% of the Moon is Illuminated
Feb 21
Waning Gibbous
Feb 22
Last Quarter
Mar 1
New
Mar 8
First Quarter
Mar 16
Full

Hourly Weather History & Observations

Time (CST) Temp. Windchill Dew Point Humidity Pressure Visibility Wind Dir Wind Speed Gust Speed Precip Events Conditions
12:14 AM 12.2 °F -6.7 °F 6.8 °F 79% 29.60 in 10.0 mi NW 21.9 mph 26.5 mph N/A   Overcast
12:34 AM 12.2 °F -7.1 °F 5.0 °F 73% 29.60 in 10.0 mi NW 23.0 mph 32.2 mph N/A   Mostly Cloudy
12:54 AM 12.2 °F -6.7 °F 5.0 °F 73% 29.60 in 10.0 mi NW 21.9 mph 32.2 mph N/A   Mostly Cloudy
1:14 AM 12.2 °F -5.8 °F 5.0 °F 73% 29.59 in 10.0 mi NW 19.6 mph 29.9 mph N/A   Scattered Clouds
1:33 AM 12.2 °F -7.1 °F 5.0 °F 73% 29.58 in 10.0 mi NW 23.0 mph 31.1 mph N/A   Clear
1:54 AM 10.4 °F -7.7 °F 3.2 °F 73% 29.58 in 10.0 mi NW 18.4 mph 31.1 mph N/A   Clear
2:13 AM 10.4 °F -8.2 °F 3.2 °F 73% 29.58 in 10.0 mi NW 19.6 mph 32.2 mph N/A   Clear
2:34 AM 10.4 °F -8.6 °F 3.2 °F 73% 29.58 in 10.0 mi NW 20.7 mph 34.5 mph N/A   Scattered Clouds
2:54 AM 10.4 °F -7.7 °F 3.2 °F 73% 29.58 in 10.0 mi NW 18.4 mph 29.9 mph N/A   Scattered Clouds
3:13 AM 10.4 °F -8.6 °F 3.2 °F 73% 29.58 in 10.0 mi NW 20.7 mph 28.8 mph N/A   Clear
3:34 AM 10.4 °F -7.2 °F 3.2 °F 73% 29.59 in 10.0 mi NW 17.3 mph 29.9 mph N/A   Scattered Clouds
3:54 AM 8.6 °F -11.0 °F 1.4 °F 73% 29.60 in 10.0 mi NW 20.7 mph 31.1 mph N/A   Scattered Clouds
4:13 AM 8.6 °F -10.0 °F 1.4 °F 73% 29.60 in 10.0 mi NW 18.4 mph 28.8 mph N/A   Clear
4:34 AM 8.6 °F -8.9 °F 1.4 °F 73% 29.60 in 10.0 mi NW 16.1 mph 29.9 mph N/A   Clear
4:54 AM 8.6 °F -12.3 °F 1.4 °F 73% 29.60 in 10.0 mi NW 24.2 mph 31.1 mph N/A   Clear
5:13 AM 8.6 °F -10.5 °F 1.4 °F 73% 29.61 in 10.0 mi WNW 19.6 mph 24.2 mph N/A   Clear
5:34 AM 6.8 °F -14.3 °F 1.4 °F 79% 29.61 in 10.0 mi NW 23.0 mph 29.9 mph N/A   Clear
5:54 AM 6.8 °F -14.3 °F 1.4 °F 79% 29.62 in 10.0 mi NW 23.0 mph 26.5 mph N/A   Clear
6:13 AM 6.8 °F -12.9 °F 1.4 °F 79% 29.63 in 10.0 mi WNW 19.6 mph 28.8 mph N/A   Clear
6:34 AM 6.8 °F -13.4 °F 1.4 °F 79% 29.63 in 10.0 mi NW 20.7 mph 25.3 mph N/A   Clear
6:54 AM 6.8 °F -12.4 °F -0.4 °F 72% 29.63 in 10.0 mi WNW 18.4 mph 26.5 mph N/A   Clear
7:13 AM 6.8 °F -11.3 °F 1.4 °F 79% 29.64 in 10.0 mi WNW 16.1 mph 25.3 mph N/A   Clear
7:34 AM 6.8 °F -11.8 °F 1.4 °F 79% 29.64 in 10.0 mi WNW 17.3 mph 21.9 mph N/A   Clear
7:53 AM 6.8 °F -10.0 °F 1.4 °F 79% 29.65 in 10.0 mi WNW 13.8 mph 20.7 mph N/A   Clear
8:14 AM 6.8 °F -12.9 °F 1.4 °F 79% 29.65 in 10.0 mi NW 19.6 mph 25.3 mph N/A   Clear
8:34 AM 8.6 °F -11.4 °F 1.4 °F 73% 29.65 in 10.0 mi WNW 21.9 mph 26.5 mph N/A   Clear
8:54 AM 8.6 °F -8.9 °F 1.4 °F 73% 29.65 in 10.0 mi WNW 16.1 mph 25.3 mph N/A   Clear
9:14 AM 10.4 °F -9.1 °F 1.4 °F 67% 29.65 in 10.0 mi WNW 21.9 mph 27.6 mph N/A   Clear
9:34 AM 10.4 °F -9.5 °F 1.4 °F 67% 29.65 in 10.0 mi WNW 23.0 mph 27.6 mph N/A   Clear
9:54 AM 10.4 °F -8.2 °F 3.2 °F 73% 29.66 in 10.0 mi WNW 19.6 mph 26.5 mph N/A   Clear
10:13 AM 12.2 °F -5.8 °F 3.2 °F 67% 29.66 in 10.0 mi NW 19.6 mph 26.5 mph N/A   Clear
10:34 AM 12.2 °F -4.8 °F 3.2 °F 67% 29.66 in 10.0 mi NW 17.3 mph 25.3 mph N/A   Clear
10:54 AM 14.0 °F -3.4 °F 3.2 °F 62% 29.66 in 10.0 mi NW 19.6 mph 31.1 mph N/A   Clear
11:14 AM 15.8 °F -1.1 °F 5.0 °F 62% 29.66 in 10.0 mi NW 19.6 mph 26.5 mph N/A   Clear
11:34 AM 15.8 °F -2.3 °F 6.8 °F 68% 29.66 in 10.0 mi NW 23.0 mph 28.8 mph N/A   Clear
11:53 AM 17.6 °F 0.9 °F 6.8 °F 63% 29.66 in 10.0 mi WNW 20.7 mph 28.8 mph N/A   Scattered Clouds
12:14 PM 17.6 °F 1.3 °F 8.6 °F 68% 29.67 in 10.0 mi NW 19.6 mph 29.9 mph N/A   Scattered Clouds
12:33 PM 17.6 °F 0.1 °F 8.6 °F 68% 29.66 in 10.0 mi NW 23.0 mph 29.9 mph N/A   Scattered Clouds
12:53 PM 19.4 °F 2.8 °F 8.6 °F 63% 29.66 in 10.0 mi NW 21.9 mph 28.8 mph N/A   Scattered Clouds
1:14 PM 19.4 °F 3.6 °F 8.6 °F 63% 29.66 in 10.0 mi NW 19.6 mph 29.9 mph N/A   Clear
1:34 PM 19.4 °F 5.5 °F 8.6 °F 63% 29.67 in 10.0 mi WNW 15.0 mph - N/A   Scattered Clouds
1:54 PM 19.4 °F 3.6 °F 8.6 °F 63% 29.67 in 10.0 mi NW 19.6 mph 26.5 mph N/A   Scattered Clouds
2:14 PM 21.2 °F 7.3 °F 8.6 °F 58% 29.67 in 10.0 mi WNW 16.1 mph 27.6 mph N/A   Scattered Clouds
2:33 PM 21.2 °F 6.0 °F 8.6 °F 58% 29.67 in 10.0 mi WNW 19.6 mph 24.2 mph N/A   Mostly Cloudy
2:54 PM 21.2 °F 7.8 °F 8.6 °F 58% 29.68 in 10.0 mi WNW 15.0 mph 27.6 mph N/A   Scattered Clouds
3:14 PM 21.2 °F 6.4 °F 8.6 °F 58% 29.69 in 10.0 mi WNW 18.4 mph 26.5 mph N/A   Scattered Clouds
3:34 PM 21.2 °F 6.0 °F 8.6 °F 58% 29.70 in 10.0 mi WNW 19.6 mph 25.3 mph N/A   Scattered Clouds
3:54 PM 21.2 °F 6.4 °F 8.6 °F 58% 29.71 in 10.0 mi WNW 18.4 mph 25.3 mph N/A   Scattered Clouds
4:13 PM 21.2 °F 6.4 °F 8.6 °F 58% 29.71 in 10.0 mi NW 18.4 mph 26.5 mph N/A   Scattered Clouds
4:34 PM 21.2 °F 8.9 °F 8.6 °F 58% 29.72 in 10.0 mi WNW 12.7 mph 25.3 mph N/A   Clear
4:53 PM 21.2 °F 6.0 °F 6.8 °F 54% 29.71 in 10.0 mi NW 19.6 mph 27.6 mph N/A   Clear
5:14 PM 21.2 °F 6.4 °F 6.8 °F 54% 29.73 in 10.0 mi NW 18.4 mph 24.2 mph N/A   Clear
5:34 PM 19.4 °F 4.1 °F 6.8 °F 58% 29.74 in 10.0 mi WNW 18.4 mph 25.3 mph N/A   Clear
5:53 PM 19.4 °F 6.0 °F 6.8 °F 58% 29.75 in 10.0 mi WNW 13.8 mph 24.2 mph N/A   Clear
6:14 PM 19.4 °F 7.2 °F 6.8 °F 58% 29.75 in 10.0 mi WNW 11.5 mph - N/A   Clear
6:33 PM 17.6 °F 5.0 °F 6.8 °F 63% 29.75 in 10.0 mi WNW 11.5 mph - N/A   Clear
6:54 PM 17.6 °F 3.7 °F 6.8 °F 63% 29.76 in 10.0 mi WNW 13.8 mph - N/A   Clear
7:14 PM 17.6 °F 5.7 °F 6.8 °F 63% 29.77 in 10.0 mi WNW 10.4 mph 16.1 mph N/A   Clear
7:33 PM 15.8 °F 4.2 °F 6.8 °F 68% 29.78 in 10.0 mi NW 9.2 mph - N/A   Clear
7:54 PM 15.8 °F 6.1 °F 6.8 °F 68% 29.79 in 10.0 mi WNW 6.9 mph - N/A   Clear
8:14 PM 14.0 °F 2.9 °F 6.8 °F 73% 29.79 in 10.0 mi WNW 8.1 mph - N/A   Clear
8:33 PM 14.0 °F 0.5 °F 6.8 °F 73% 29.80 in 10.0 mi WNW 11.5 mph - N/A   Clear
8:54 PM 14.0 °F -0.2 °F 5.0 °F 67% 29.80 in 10.0 mi WNW 12.7 mph - N/A   Clear
9:14 PM 14.0 °F 1.2 °F 5.0 °F 67% 29.81 in 10.0 mi WNW 10.4 mph - N/A   Clear
9:33 PM 12.2 °F -1.8 °F 5.0 °F 73% 29.81 in 10.0 mi WNW 11.5 mph - N/A   Clear
9:54 PM 12.2 °F -1.0 °F 3.2 °F 67% 29.81 in 10.0 mi WNW 10.4 mph - N/A   Clear
10:14 PM 12.2 °F -0.2 °F 3.2 °F 67% 29.82 in 10.0 mi WNW 9.2 mph - N/A   Clear
10:33 PM 12.2 °F -1.0 °F 3.2 °F 67% 29.82 in 10.0 mi WNW 10.4 mph - N/A   Clear
10:54 PM 10.4 °F -4.1 °F 3.2 °F 73% 29.83 in 10.0 mi WNW 11.5 mph - N/A   Clear
11:14 PM 10.4 °F -4.1 °F 1.4 °F 67% 29.83 in 10.0 mi NW 11.5 mph - N/A   Clear
11:34 PM 10.4 °F -3.3 °F 1.4 °F 67% 29.84 in 10.0 mi WNW 10.4 mph - N/A   Clear
11:54 PM 10.4 °F -3.3 °F 1.4 °F 67% 29.85 in 10.0 mi WNW 10.4 mph - N/A   Clear